Location: Campillo
(40.8621°N, 4.2488°W)
Time: 16:56:26
(UTC+00:00)

Cosmos 158 Rocket - Pass Details

Date: 27 September 2021
Orbit: 699 x 792 km, 74.0° (Epoch: 24 October)

Event Time Altitude Azimuth Distance (km) Brightness Sun altitude
Rises 19:50:42 0° 339° (NNW) 3,149 7.7 -20.5°
Reaches altitude 10° 19:53:04 10° 339° (NNW) 2,211 6.9 -20.9°
Maximum altitude 19:58:03 84° 252° (WSW) 718 3.8 -21.8°
Enters shadow 20:00:03 36° 168° (SSE) 1,105 4.5 -22.2°
